This is the latest recevied weather packets stored in our database for station/object LU2DKV-10. If no packets are shown the sender has not sent any weather packets the latest 10 day(s).
| Time | Temp. | Humidity | Pressure | Rain* | Wind** | Luminosity | Snow |
|---|---|---|---|---|---|---|---|
| 1777491681 | 21.11° C | 38% | 1010 hPa | - | - | 0 W/m² | - |
| 1777489859 | 21.11° C | 39% | 1009 hPa | - | - | 0 W/m² | - |
| 1777488037 | 21.11° C | 41% | 1009 hPa | - | - | 0 W/m² | - |
| 1777486215 | 21.11° C | 45% | 1009 hPa | - | - | 0 W/m² | - |
| 1777484393 | 21.11° C | 44% | 1009 hPa | - | - | 0 W/m² | - |
| 1777482571 | 21.11° C | 44% | 1009 hPa | - | - | 0 W/m² | - |
| 1777480749 | 20.56° C | 47% | 1009 hPa | - | - | 0 W/m² | - |
| 1777478927 | 20.56° C | 51% | 1010 hPa | - | - | 0 W/m² | - |
| 1777477105 | 21.11° C | 52% | 1010 hPa | - | - | 0 W/m² | - |
| 1777475283 | 20° C | 55% | 1010 hPa | - | - | 0 W/m² | - |
| 1777473461 | 19.44° C | 56% | 1010 hPa | - | - | 0 W/m² | - |
| 1777471639 | 18.33° C | 57% | 1009 hPa | - | - | 0 W/m² | - |
| 1777469817 | 17.78° C | 58% | 1010 hPa | - | - | 0 W/m² | - |
| 1777467995 | 17.22° C | 60% | 1010 hPa | - | - | 0 W/m² | - |
| 1777466173 | 16.67° C | 60% | 1010 hPa | - | - | 0 W/m² | - |
| 1777464351 | 15.56° C | 62% | 1009 hPa | - | - | 0 W/m² | - |
| 1777462529 | 15.56° C | 62% | 1009 hPa | - | - | 0 W/m² | - |
| 1777460707 | 15° C | 63% | 1008 hPa | - | - | 0 W/m² | - |
| 1777458885 | 15° C | 63% | 1008 hPa | - | - | 0 W/m² | - |
| 1777457063 | 15° C | 63% | 1008 hPa | - | - | 0 W/m² | - |
| 1777455241 | 15° C | 61% | 1009 hPa | - | - | 0 W/m² | - |
| 1777453419 | 14.44° C | 61% | 1009 hPa | - | - | 0 W/m² | - |
| 1777451597 | 14.44° C | 62% | 1009 hPa | - | - | 0 W/m² | - |
| 1777449775 | 14.44° C | 63% | 1009 hPa | - | - | 0 W/m² | - |
| 1777447953 | 14.44° C | 63% | 1009 hPa | - | - | 0 W/m² | - |
* Rain since midnight (hover to see other rain measurements)
** Current wind speed in m/s (hover to see current wind gust speed)